Simultaneous Nadir Overpasses (SNOs) Predictions

Prediction of SNOs between AQUA and GOES-15 Satellite Orbit:

Table of predicted SNOs for the next 14.0 days since TLE Epoch: 5/2/2014
Index Date Time (AQUA) AQUA Lat,Lon GOES-15 Lat,Lon Distance(km) Time Diff (sec)
1 05/02/2014 22:29:42 0.36,-133.46 -0.04,-135.30 209.05 80
2 05/03/2014 10:50:57 0.73,-138.62 0.04,-135.29 378.34 80
3 05/05/2014 10:38:46 0.16,-135.66 0.04,-135.25 47.29 80
4 05/07/2014 10:26:36 -0.49,-132.72 0.05,-135.21 283.74 80
5 05/07/2014 22:48:00 -0.64,-137.90 -0.05,-135.19 308.54 80
6 05/09/2014 22:35:49 -0.03,-134.95 -0.05,-135.15 22.14 80
7 05/11/2014 22:23:38 0.60,-132.00 -0.05,-135.09 351.95 80
8 05/12/2014 10:44:54 0.47,-137.16 0.05,-135.08 235.60 80
9 05/14/2014 10:32:42 -0.13,-134.20 0.04,-135.02 93.42 80
10 05/14/2014 22:54:06 -0.99,-139.39 -0.04,-134.99 499.84 80




NCC Satellite Simultaneous Nadir Overpasses (SNOs) Prediction Service
